Content
SEND FEEDBACK

United States of America Flag

ONEONTA, ALABAMA


Home > North America > United States > Alabama
Elevation: 1162 feet     Latitude: 33 57N     Longitude: 086 29W

WEATHER
 
SELECT A DAY
Number of Records: 469,865;   Date Range: 1/1/95 - 3/22/16
 
SHARE

PRINT THIS DATA

[ ← Previous Day ]
WEATHER ALMANAC - FEBRUARY 12, 2013
[ Next Day → ]
[ °C ]   °F
Weather ElementAverageHighLow
Temperature45.5 °F50 °F (8:55 am)41 °F (6:55 am)
Dewpoint39.4 °F42.8 °F (12:35 am)33.8 °F (8:55 am)
Humidity79.9 %93 % (12:55 am)54 % (8:55 am)
Barometer30.02 in30.17 in (12:55 am)29.80 in (11:55 pm)
Wind Speed5.5 mph13.8 mph (9:15 am)
Wind Gust19.6 mph (9:15 am)
Weather ElementAverage
Visibility9.8 mi
Wind DirectionENE (67.4 °)

Weather ElementTotal
Precipitation0.57 in
Heating Degree Days19.5 (Base 65)
Averaged from 70 records on February 12, 2013
WEATHER CONDITIONS BREAKOUT
WIND DIRECTION BREAKOUT
WEATHER BY HOUR - FEBRUARY 12, 2013
[ °C ]   °F
Local TimeTemperatureDewpointHumidityBarometerVisibilityWind DirectionWind SpeedGust SpeedPrecipitationEventsConditions
12:35 AM46.4 °F42.8 °F87 %30.13 in10.0 miWest (280°)3.5 mphOvercast
12:55 AM44.6 °F42.8 °F93 %30.17 in10.0 miWest (260°)6.9 mphOvercast
1:15 AM46.4 °F42.8 °F87 %30.14 in10.0 miCalmScattered Clouds
1:35 AM44.6 °F42.8 °F93 %30.13 in10.0 miCalmMostly Cloudy
1:55 AM44.6 °F42.8 °F93 %30.13 in10.0 miSSW (200°)3.5 mphOvercast
2:15 AM46.4 °F42.8 °F87 %30.13 in10.0 miCalmOvercast
2:35 AM44.6 °F42.8 °F93 %30.12 in10.0 miCalmOvercast
2:55 AM44.6 °F42.8 °F93 %30.12 in10.0 miCalmOvercast
3:15 AM44.6 °F42.8 °F93 %30.13 in10.0 miWest (270°)4.6 mphScattered Clouds
3:35 AM44.6 °F42.8 °F93 %30.13 in10.0 miNW (320°)3.5 mphPartly Cloudy
3:55 AM44.6 °F42.8 °F93 %30.14 in10.0 miNNW (340°)3.5 mphClear
4:15 AM44.6 °F41.0 °F87 %30.13 in10.0 miCalmPartly Cloudy
4:35 AM44.6 °F41.0 °F87 %30.13 in10.0 miCalmMostly Cloudy
4:55 AM44.6 °F41.0 °F87 %30.14 in10.0 miCalmMostly Cloudy
5:15 AM44.6 °F41.0 °F87 %30.15 in10.0 miCalmOvercast
5:35 AM44.6 °F41.0 °F87 %30.16 in10.0 miCalmMostly Cloudy
5:55 AM44.6 °F41.0 °F87 %30.13 in10.0 miCalmPartly Cloudy
6:15 AM42.8 °F39.2 °F87 %30.13 in10.0 miCalmClear
6:35 AM42.8 °F37.4 °F81 %30.12 in10.0 miCalmClear
6:55 AM41.0 °F37.4 °F87 %30.13 in10.0 miCalmScattered Clouds
7:15 AM41.0 °F37.4 °F87 %30.12 in10.0 miCalmOvercast
7:35 AM44.6 °F39.2 °F81 %30.11 in10.0 miENE (60°)4.6 mphMostly Cloudy
7:55 AM46.4 °F37.4 °F71 %30.12 in10.0 miCalmMostly Cloudy
8:15 AM48.2 °F37.4 °F66 %30.10 in10.0 miNE (40°)5.8 mphScattered Clouds
8:35 AM48.2 °F37.4 °F66 %30.10 in10.0 miENE (60°)10.4 mphClear
8:55 AM50.0 °F33.8 °F54 %30.11 in10.0 miENE (70°)11.5 mphClear
9:15 AM50.0 °F35.6 °F58 %30.10 in10.0 miNE (50°)13.8 mph19.6 mphClear
9:35 AM48.2 °F33.8 °F58 %30.10 in10.0 miENE (70°)12.7 mph19.6 mphClear
9:55 AM48.2 °F33.8 °F58 %30.10 in10.0 miEast (90°)9.2 mphClear
10:15 AM48.2 °F33.8 °F58 %30.11 in10.0 miENE (70°)8.1 mphClear
10:35 AM48.2 °F33.8 °F58 %30.09 in8.0 miEast (80°)10.4 mphClear
10:55 AM48.2 °F33.8 °F58 %30.06 in10.0 miEast (80°)9.2 mphClear
11:15 AM48.2 °F33.8 °F58 %30.08 in10.0 miENE (60°)8.1 mphClear
11:35 AM48.2 °F33.8 °F58 %30.07 in10.0 miENE (70°)5.8 mphClear
11:55 AM48.2 °F33.8 °F58 %30.07 in10.0 miENE (60°)3.5 mphScattered Clouds
12:15 PM48.2 °F33.8 °F58 %30.06 in10.0 miEast (100°)5.8 mphMostly Cloudy
12:35 PM50.0 °F33.8 °F54 %30.06 in10.0 miEast (90°)5.8 mphOvercast
12:55 PM48.2 °F35.6 °F62 %30.06 in10.0 miCalmOvercast
1:15 PM46.4 °F39.2 °F76 %30.03 in7.0 miEast (90°)3.5 mph0.02 inOvercast
1:35 PM46.4 °F41.0 °F81 %30.01 in10.0 miENE (60°)4.6 mph0.03 inMostly Cloudy
1:55 PM46.4 °F41.0 °F81 %30.01 in10.0 miCalm0.05 inScattered Clouds
2:35 PM46.4 °F42.8 °F87 %29.98 in10.0 miNE (50°)9.2 mph0.02 inScattered Clouds
2:55 PM46.4 °F41.0 °F81 %29.94 in10.0 miNNE (20°)11.5 mph0.02 inMostly Cloudy
3:15 PM44.6 °F39.2 °F81 %29.92 in10.0 miENE (70°)12.7 mphMostly Cloudy
3:35 PM44.6 °F41.0 °F87 %29.94 in10.0 miNNE (30°)3.5 mph0.04 inScattered Clouds
3:55 PM44.6 °F42.8 °F93 %29.97 in10.0 miCalm0.05 inClear
4:15 PM44.6 °F39.2 °F81 %29.98 in10.0 miEast (90°)3.5 mph0.02 inClear
4:35 PM44.6 °F41.0 °F87 %29.91 in9.0 miNE (40°)11.5 mph0.04 inMostly Cloudy
4:55 PM44.6 °F39.2 °F81 %29.92 in10.0 miNNE (20°)5.8 mph0.06 inOvercast
5:15 PM44.6 °F39.2 °F81 %29.94 in10.0 miNE (50°)6.9 mphOvercast
5:35 PM44.6 °F41.0 °F87 %29.92 in10.0 miEast (80°)8.1 mph0.01 inOvercast
5:55 PM44.6 °F39.2 °F81 %29.91 in10.0 miEast (90°)8.1 mph0.01 inOvercast
6:15 PM44.6 °F39.2 °F81 %29.91 in8.0 miEast (80°)8.1 mph0.02 inOvercast
6:35 PM44.6 °F41.0 °F87 %29.94 in8.0 miENE (60°)5.8 mph0.06 inOvercast
6:55 PM44.6 °F41.0 °F87 %29.93 in8.0 miENE (70°)4.6 mph0.09 inOvercast
7:15 PM44.6 °F41.0 °F87 %29.92 in10.0 miEast (90°)8.1 mph0.01 inOvercast
7:35 PM44.6 °F41.0 °F87 %29.88 in10.0 miENE (60°)12.7 mph18.4 mph0.01 inMostly Cloudy
7:55 PM44.6 °F39.2 °F81 %29.88 in10.0 miEast (80°)10.4 mph0.01 inMostly Cloudy
8:15 PM44.6 °F39.2 °F81 %29.88 in10.0 miENE (70°)8.1 mphOvercast
8:35 PM44.6 °F39.2 °F81 %29.88 in10.0 miEast (80°)9.2 mphOvercast
8:55 PM44.6 °F41.0 °F87 %29.90 in10.0 miNNE (30°)8.1 mphOvercast
9:15 PM44.6 °F39.2 °F81 %29.89 in10.0 miENE (70°)3.5 mphOvercast
9:35 PM44.6 °F39.2 °F81 %29.86 in10.0 miENE (70°)9.2 mphOvercast
9:55 PM44.6 °F39.2 °F81 %29.83 in10.0 miEast (90°)10.4 mphOvercast
10:15 PM44.6 °F41.0 °F87 %29.83 in10.0 miENE (70°)9.2 mphOvercast
10:35 PM44.6 °F41.0 °F87 %29.83 in10.0 miEast (80°)8.1 mphOvercast
10:55 PM44.6 °F41.0 °F87 %29.81 in10.0 miEast (80°)8.1 mphOvercast
11:15 PM44.6 °F41.0 °F87 %29.81 in10.0 miEast (90°)5.8 mphOvercast
11:35 PM44.6 °F41.0 °F87 %29.81 in10.0 miENE (70°)8.1 mphOvercast
11:55 PM44.6 °F41.0 °F87 %29.80 in10.0 miENE (70°)9.2 mphOvercast
Hourly data recorded from KGAD, located miles away from Oneonta, Alabama




STORIES FROM OUR PARTNERS